Temperature
24 21 20 21 22 23 24 25 25 26 28 27 26 25 25 25 25 24 24 24 23 23 23 23 23 22 22 21 21 20 20 20 20 20 19 19 19 19 19 19 19 19 19 19
22 21 22 23 24 25 25 24 24 25 27 27 25 25 25 25 25 25 24 24 23 23 23 22 22 22 22 21 21 20 20 20 20 20 20 19 19 19 19 19 19 19 19 19
21 22 24 25 24 25 24 24 24 25 26 27 26 25 24 24 25 25 24 24 23 23 23 22 22 22 22 22 21 21 20 20 20 20 20 19 19 19 19 19 19 19 19 19
22 23 25 24 24 25 23 25 26 26 25 24 25 23 24 23 24 24 24 24 23 23 23 23 22 22 22 22 22 21 20 20 20 20 20 19 19 19 19 19 19 19 19 19
22 24 24 24 25 25 24 26 26 26 25 24 24 23 22 22 23 23 23 24 24 23 23 23 23 23 22 22 21 21 20 20 20 20 20 19 19 19 19 19 19 19 18 19
23 25 25 25 26 26 26 26 25 23 21 22 23 23 22 21 22 23 23 24 24 23 23 23 23 22 22 22 21 21 20 20 20 19 19 19 19 19 19 19 19 19 18 18
23 24 25 26 25 26 26 23 21 22 20 21 22 23 21 22 23 23 23 24 24 23 23 22 22 22 22 21 21 21 20 20 20 19 19 19 19 19 19 19 19 19 19 18
21 21 24 25 25 24 24 21 20 21 21 21 22 22 21 22 23 24 24 24 24 23 23 22 22 22 22 21 21 20 20 20 20 19 19 19 19 19 19 19 19 19 19 19
20 21 25 26 26 25 25 22 21 20 21 21 21 22 22 23 23 22 23 23 23 23 23 23 22 22 22 21 21 21 20 20 20 19 19 19 19 18 18 18 18 18 18 18
21 22 24 26 27 26 24 23 20 20 20 21 21 21 21 22 22 22 21 22 23 23 22 22 22 22 22 22 21 21 20 20 20 19 19 19 19 18 18 18 18 18 18 18
22 21 22 24 24 24 25 23 20 18 19 20 20 20 22 21 21 21 21 22 22 22 22 22 22 22 22 21 21 20 20 20 20 19 19 19 19 18 18 18 18 18 18 18
21 19 20 22 24 25 24 23 20 20 19 18 19 20 22 21 20 21 21 22 22 22 22 22 21 21 21 21 20 20 20 20 19 19 19 19 19 18 18 18 18 18 18 18
21 19 19 21 22 23 24 23 21 19 18 18 19 20 21 20 20 21 21 21 22 22 22 21 21 21 21 21 20 20 20 19 19 19 19 19 18 18 18 18 18 17 17 17
21 18 19 20 20 22 23 24 22 19 19 19 20 20 20 20 20 20 20 21 21 21 21 21 21 21 20 20 20 20 19 19 19 19 18 18 18 18 18 18 18 17 17 17
19 19 20 20 22 23 24 24 23 22 20 20 21 20 20 20 20 20 20 20 20 20 20 20 20 20 20 20 19 19 19 19 19 18 18 18 18 18 18 18 17 17 17 17
17 19 20 21 22 23 23 24 24 24 23 22 21 20 20 20 20 20 20 20 19 19 20 20 20 20 19 19 19 19 19 18 18 18 18 18 18 18 18 17 17 17 17 17
16 17 18 19 20 22 21 22 23 23 23 22 21 20 19 19 19 19 19 19 19 19 20 19 19 20 19 19 19 19 18 18 18 18 18 17 17 17 17 17 17 17 17 17
16 16 15 17 20 20 20 21 22 22 22 21 20 19 19 19 19 19 20 20 20 20 19 19 19 19 19 18 18 18 18 18 17 17 17 17 17 17 17 16 16 16 16 16
16 16 16 16 18 19 20 20 21 21 20 20 20 19 19 19 18 18 19 20 20 19 19 19 19 19 19 18 18 18 17 17 17 17 17 17 16 16 16 16 16 16 16 16
16 15 15 16 18 18 19 19 21 20 19 19 19 19 18 18 17 17 18 19 19 19 19 18 18 18 18 18 17 17 17 17 17 16 16 16 16 16 16 16 16 16 16 15
16 15 16 16 17 17 18 19 20 19 18 18 19 19 19 17 18 17 18 18 18 18 18 18 18 18 17 17 17 17 16 16 16 16 16 16 16 16 15 15 15 15 15 15
15 15 15 15 16 17 17 18 17 17 17 18 18 18 18 17 17 17 17 17 17 17 17 17 17 17 16 16 16 16 16 16 16 15 15 15 15 15 15 15 15 15 14 14
14 14 14 14 15 15 16 17 17 17 17 17 18 18 18 17 16 16 16 16 16 16 16 16 16 16 15 15 15 15 15 15 15 15 15 15 14 14 14 14 14 14 14 14
14 14 14 14 15 15 16 17 17 17 17 17 17 17 17 16 16 15 15 15 15 15 15 15 15 15 14 14 14 15 14 14 14 14 14 14 14 14 13 13 13 13 13 13
14 14 14 14 14 15 15 16 16 16 17 17 17 16 16 16 15 15 14 14 14 14 14 14 14 14 14 14 14 14 14 14 14 14 13 13 13 13 13 13 12 13 13 13
13 13 13 14 14 14 14 15 16 16 16 16 16 15 15 15 14 14 14 14 13 13 13 13 13 13 13 13 13 13 13 13 14 13 13 13 12 12 12 12 12 12 12 12
Wind_Speed
4 4 7 10 9 7 5 5 8 11 8 3 6 8 10 12 14 16 16 16 17 15 12 13 15 15 14 13 12 12 13 11 10 7 6 6 5 5 5 6 11 13 13 13
2 8 10 8 7 7 8 8 10 12 9 3 5 7 9 11 15 17 18 17 17 13 12 14 14 14 14 15 14 13 14 13 11 8 6 5 5 4 5 5 8 11 12 12
10 7 8 9 9 9 10 10 10 10 9 2 4 2 4 5 6 10 13 15 17 19 19 18 17 16 15 16 16 15 14 12 11 9 6 5 3 3 3 4 6 8 11 12
8 10 8 9 11 10 10 10 10 8 3 4 3 3 6 5 5 9 11 12 14 16 17 17 17 17 18 16 14 12 13 12 11 11 10 9 7 7 7 5 6 6 9 11
8 8 10 11 13 11 10 10 7 6 3 1 1 4 6 1 4 8 12 15 15 16 18 19 18 18 16 15 15 13 13 12 11 11 11 10 8 6 4 4 6 7 7 8
9 7 8 12 13 12 11 5 4 3 4 1 5 5 5 5 9 9 10 14 15 16 16 14 13 12 10 12 13 13 13 13 13 12 11 11 10 8 7 7 7 6 5 6
7 10 9 6 7 7 6 4 3 3 3 6 5 4 7 7 7 10 12 13 14 15 15 13 13 13 12 13 13 13 13 12 12 13 12 11 11 10 10 9 9 7 6 6
6 8 8 7 9 8 7 11 8 6 5 4 3 3 6 5 3 3 6 8 11 12 14 14 14 14 14 14 13 13 14 12 12 12 11 9 9 8 7 8 7 8 7 8
8 8 7 8 8 10 7 7 10 8 3 1 3 3 5 3 2 2 4 5 7 9 11 13 13 13 13 14 13 13 13 11 11 12 10 9 9 8 8 7 6 6 6 7
7 5 7 7 4 5 9 9 7 6 5 3 3 2 4 4 4 2 3 4 7 9 9 10 12 11 11 11 11 11 11 11 9 10 9 9 8 8 7 6 7 7 7 7
7 4 6 2 6 9 5 5 6 6 6 7 4 6 6 8 7 5 5 5 7 9 9 8 9 10 9 9 10 10 10 9 9 9 8 7 7 7 6 6 6 6 6 6
6 6 5 7 7 8 7 8 8 6 4 5 5 7 6 5 5 5 5 5 7 7 9 8 7 8 8 8 9 8 8 8 8 8 7 7 6 5 5 5 5 5 5 5
6 6 1 6 5 0 4 5 7 8 6 5 5 6 2 1 3 5 6 6 7 8 10 9 9 8 8 8 8 8 7 7 6 6 6 6 5 5 5 4 4 4 4 4
6 5 7 8 7 4 3 3 5 7 5 5 7 6 5 4 5 5 5 7 9 10 11 10 9 8 8 7 7 7 6 6 6 6 6 5 5 5 4 3 3 3 3 4
5 4 4 4 4 2 2 4 4 6 9 9 9 9 10 9 9 8 8 8 9 9 10 10 9 8 7 7 6 7 6 6 6 6 5 5 4 4 4 3 3 2 3 3
4 3 1 2 3 1 2 4 4 5 6 6 7 4 5 6 7 8 10 11 10 9 9 9 9 8 7 7 7 7 6 5 5 6 5 4 4 3 3 3 2 2 2 2
3 4 3 2 4 3 3 4 3 2 3 8 8 8 8 9 8 9 11 10 10 10 9 8 7 7 6 5 6 7 5 4 5 4 4 4 4 3 3 3 2 2 2 1
3 3 3 1 3 3 7 4 2 4 2 4 7 10 12 11 8 6 8 11 9 9 10 8 6 6 6 5 5 5 5 5 5 4 3 3 3 3 2 2 2 2 2 2
5 6 3 3 2 3 5 4 2 2 1 2 10 12 13 13 10 5 3 7 9 8 9 7 5 6 6 6 6 6 5 5 5 3 3 2 3 3 2 2 2 2 2 2
4 6 5 3 3 4 5 7 6 4 1 1 8 13 14 11 7 4 5 8 10 10 8 7 6 7 7 5 6 7 6 5 4 3 2 2 3 3 3 2 2 2 3 3
3 3 4 3 2 4 5 8 3 4 4 2 5 9 10 6 8 10 11 10 11 11 9 8 9 8 6 6 7 7 6 4 3 3 3 3 3 3 3 3 3 3 4 4
4 4 3 4 3 5 5 3 2 3 2 4 6 6 10 13 14 14 14 12 11 11 11 10 10 9 8 7 8 8 6 3 4 5 5 5 4 3 4 4 4 4 5 5
1 4 4 4 4 3 1 2 1 3 5 4 6 7 14 17 15 14 13 12 10 11 11 9 10 10 8 8 8 8 5 4 6 7 6 6 7 6 6 6 6 5 5 5
2 1 2 2 1 2 3 4 4 3 5 6 9 11 14 17 16 15 13 12 10 10 10 10 11 10 9 8 8 7 5 6 7 8 7 7 8 7 8 7 6 6 5 4
2 1 2 1 1 4 5 4 5 5 7 9 10 12 14 17 16 15 13 12 11 10 9 10 10 10 8 7 7 7 6 7 8 8 7 7 7 7 8 9 8 7 7 5
1 2 3 4 3 3 2 2 4 5 7 10 14 13 12 14 15 14 13 11 11 11 10 10 10 9 8 7 7 7 6 6 8 8 7 6 6 6 7 8 9 14 11 13
Wind_Direction
207 156 212 217 202 206 239 273 279 277 278 269 211 183 179 171 171 173 176 174 178 186 181 171 168 169 165 164 168 170 167 169 161 158 159 160 167 172 176 180 179 179 179 178
223 235 224 215 227 241 253 266 275 286 280 242 198 194 192 179 180 181 180 177 178 173 170 173 170 170 169 172 175 176 175 173 172 172 168 164 162 172 178 181 181 183 180 179
201 230 207 214 231 243 254 239 247 260 298 311 143 248 227 208 172 179 186 182 177 175 177 178 177 177 174 178 179 181 178 175 174 167 156 151 139 144 170 183 186 191 186 184
230 240 225 219 231 225 252 244 241 251 268 276 141 203 257 211 189 182 186 187 186 185 179 180 182 181 182 184 182 179 178 175 174 170 174 175 179 189 197 189 187 190 190 189
231 216 216 225 229 222 233 248 243 239 211 287 5 143 268 224 195 200 190 186 186 185 181 183 186 185 184 181 178 176 178 179 177 182 184 184 191 195 181 177 184 193 196 194
241 251 214 219 235 227 228 252 331 36 81 257 241 164 246 221 204 202 192 185 181 180 182 183 182 174 178 177 177 177 179 183 183 184 187 189 190 187 181 185 191 198 202 203
265 264 253 232 236 249 202 131 30 351 15 243 253 171 237 241 211 196 187 183 179 173 174 174 170 173 179 179 180 181 181 186 187 186 191 193 193 191 191 192 196 198 203 207
211 259 243 221 203 207 193 150 163 186 208 266 319 221 263 270 225 167 156 170 171 170 172 172 174 177 182 183 181 180 184 187 187 190 196 196 192 193 197 198 199 202 207 211
193 239 258 233 203 175 175 171 170 144 160 112 295 301 320 353 11 92 122 143 166 169 170 170 174 178 178 181 180 178 182 183 185 187 191 195 195 195 200 200 198 205 212 211
181 235 270 245 216 202 171 163 112 123 151 214 278 264 230 247 245 215 164 160 173 163 164 168 172 174 173 175 172 172 177 182 183 186 190 197 196 196 194 195 203 207 210 211
179 197 285 299 195 202 170 140 124 133 153 159 210 258 223 211 206 197 182 159 159 155 159 162 167 168 161 156 159 166 172 174 180 183 187 190 193 194 189 196 206 208 209 208
180 155 238 253 238 192 172 174 150 154 195 159 166 254 262 208 192 166 155 150 142 146 151 155 149 139 139 148 151 155 162 171 179 177 175 184 187 189 195 203 207 203 207 212
161 136 144 329 328 145 168 173 156 138 131 151 164 251 268 126 144 150 151 149 135 134 134 135 130 133 143 147 150 150 155 165 163 159 163 169 177 185 196 202 203 202 206 214
134 124 158 192 217 212 204 207 159 135 155 181 200 210 234 194 153 140 142 140 132 133 129 131 133 139 140 142 144 145 148 149 148 149 156 164 174 183 189 190 192 203 203 208
104 149 190 215 235 201 223 227 203 176 177 177 203 194 212 194 166 145 129 125 124 126 126 129 132 134 133 136 138 140 144 144 148 150 159 173 177 178 176 182 192 199 200 214
68 126 136 323 319 325 305 274 243 212 176 170 161 195 206 160 133 127 130 132 134 131 126 127 127 127 130 137 139 137 140 143 144 150 159 165 163 162 165 183 195 194 203 209
43 90 92 292 323 27 295 262 231 215 184 159 178 195 154 141 147 150 145 146 146 138 133 135 136 133 135 140 141 139 143 138 137 147 156 162 162 164 177 185 174 189 190 168
126 96 112 105 48 215 245 278 198 158 174 161 152 154 152 149 143 138 148 144 141 137 135 132 139 137 135 132 124 123 120 124 130 129 138 143 140 155 164 162 161 154 135 135
153 136 118 117 150 282 312 327 329 138 320 135 139 140 134 119 96 73 99 133 138 137 130 130 136 135 123 121 121 116 111 113 111 109 118 132 141 144 141 151 160 147 136 119
99 113 117 115 137 217 259 295 306 100 23 304 144 148 146 129 128 155 132 116 116 113 109 106 108 106 104 105 109 107 106 108 115 124 121 117 126 132 136 140 126 113 114 117
77 76 127 145 181 258 278 304 353 123 213 235 155 154 143 138 145 141 121 107 105 104 101 98 92 87 90 95 101 100 97 104 125 116 96 90 104 122 123 112 102 106 102 95
154 143 161 148 175 247 311 2 101 193 188 127 120 125 116 116 117 117 111 105 101 98 92 90 89 79 71 77 89 87 77 75 89 90 83 76 70 81 96 97 93 92 93 89
131 177 170 172 201 243 312 135 149 133 121 105 116 118 123 122 123 121 115 112 107 102 98 94 93 83 69 65 79 82 62 64 81 85 82 78 70 63 71 81 86 88 83 82
324 39 114 100 351 30 41 60 59 86 111 116 124 125 123 122 123 118 116 113 106 100 99 97 91 86 73 63 66 69 64 72 83 85 82 81 79 73 69 69 68 76 75 77
279 16 78 106 147 62 43 60 80 80 95 110 111 116 124 124 122 119 116 113 109 103 95 94 93 89 79 68 63 58 62 80 88 87 85 83 84 88 79 70 60 64 57 66
291 180 167 200 211 147 154 97 100 103 112 119 114 106 109 117 117 116 113 111 108 103 99 95 90 88 80 71 64 56 58 76 92 89 84 85 86 85 91 93 77 59 62 57
Height
1470 1478 1483 1480 1480 1482 1483 1486 1488 1478 1467 1471 1475 1477 1475 1477 1481 1484 1487 1489 1493 1496 1501 1505 1509 1513 1517 1520 1522 1526 1529 1532 1535 1537 1540 1542 1544 1547 1549 1551 1552 1554 1555 1557
1475 1478 1472 1472 1473 1476 1480 1486 1486 1476 1466 1470 1475 1476 1473 1473 1476 1479 1481 1484 1488 1493 1499 1503 1507 1510 1513 1516 1519 1523 1526 1529 1532 1535 1538 1541 1543 1545 1547 1549 1551 1553 1554 1556
1475 1470 1466 1470 1473 1477 1479 1483 1483 1480 1469 1467 1474 1482 1478 1474 1474 1478 1479 1481 1484 1487 1492 1497 1501 1505 1508 1511 1515 1518 1522 1526 1530 1533 1536 1539 1541 1543 1545 1546 1548 1550 1552 1554
1469 1464 1464 1468 1471 1473 1482 1470 1471 1473 1480 1486 1479 1500 1483 1477 1476 1477 1478 1480 1483 1485 1488 1492 1496 1500 1503 1507 1511 1515 1520 1523 1526 1530 1532 1534 1536 1538 1540 1543 1545 1547 1549 1551
1466 1459 1462 1466 1465 1466 1470 1462 1466 1469 1477 1485 1483 1496 1492 1478 1479 1477 1475 1476 1478 1481 1484 1488 1491 1495 1500 1504 1508 1513 1516 1520 1523 1526 1529 1531 1533 1536 1538 1541 1543 1545 1547 1548
1459 1453 1455 1457 1455 1457 1458 1463 1468 1475 1486 1500 1488 1494 1496 1483 1475 1471 1471 1472 1474 1478 1481 1485 1489 1494 1499 1502 1506 1509 1513 1516 1520 1523 1526 1528 1530 1533 1535 1537 1539 1541 1543 1545
1461 1454 1450 1450 1456 1455 1459 1479 1500 1502 1511 1507 1486 1489 1490 1471 1465 1464 1466 1468 1471 1475 1479 1483 1487 1491 1495 1499 1502 1505 1509 1513 1516 1519 1522 1525 1527 1530 1532 1534 1536 1538 1539 1540
1471 1469 1450 1446 1451 1458 1460 1475 1501 1511 1512 1504 1487 1491 1480 1464 1461 1461 1463 1467 1470 1473 1477 1480 1483 1487 1491 1494 1498 1501 1505 1509 1512 1515 1518 1522 1524 1526 1529 1531 1533 1534 1535 1537
1467 1465 1443 1439 1439 1446 1457 1469 1471 1491 1494 1503 1497 1485 1472 1462 1462 1463 1464 1467 1470 1473 1475 1477 1481 1485 1488 1491 1494 1498 1502 1506 1509 1512 1516 1518 1520 1523 1525 1527 1529 1531 1532 1533
1452 1459 1445 1437 1437 1439 1446 1455 1476 1491 1505 1510 1500 1492 1486 1471 1467 1464 1464 1466 1469 1472 1475 1477 1480 1483 1486 1490 1493 1497 1501 1504 1508 1511 1513 1515 1517 1520 1522 1524 1525 1526 1528 1529
1445 1458 1452 1443 1445 1449 1449 1457 1470 1486 1491 1506 1510 1498 1468 1466 1463 1463 1463 1464 1467 1470 1473 1476 1479 1482 1486 1490 1493 1496 1500 1503 1505 1508 1511 1513 1515 1517 1518 1520 1521 1522 1524 1525
1442 1456 1462 1450 1437 1434 1442 1452 1465 1484 1491 1494 1501 1493 1459 1459 1459 1460 1462 1464 1467 1470 1473 1476 1479 1482 1486 1489 1492 1495 1498 1501 1503 1506 1508 1510 1512 1514 1515 1517 1518 1519 1519 1520
1439 1455 1467 1463 1453 1442 1443 1446 1454 1467 1482 1492 1497 1487 1459 1460 1460 1460 1462 1465 1467 1470 1472 1476 1479 1481 1485 1489 1491 1494 1496 1499 1502 1504 1506 1508 1509 1511 1512 1513 1514 1515 1515 1516
1432 1450 1461 1468 1461 1450 1447 1446 1449 1463 1480 1485 1481 1475 1465 1462 1461 1461 1463 1465 1467 1470 1472 1476 1479 1483 1486 1489 1491 1493 1495 1497 1499 1502 1504 1506 1507 1508 1509 1510 1511 1511 1512 1512
1433 1447 1447 1447 1442 1441 1442 1444 1445 1453 1461 1470 1468 1466 1461 1458 1458 1460 1463 1467 1469 1471 1473 1476 1479 1482 1485 1488 1490 1492 1494 1496 1498 1501 1503 1504 1505 1506 1507 1507 1508 1508 1509 1509
1437 1445 1445 1447 1440 1439 1442 1441 1441 1443 1447 1452 1457 1461 1455 1456 1458 1460 1463 1467 1470 1473 1475 1477 1480 1482 1484 1488 1490 1492 1494 1496 1498 1499 1501 1502 1503 1504 1504 1504 1505 1506 1506 1506
1443 1447 1454 1458 1447 1443 1454 1445 1442 1443 1441 1446 1456 1455 1453 1457 1458 1460 1462 1465 1469 1472 1475 1478 1480 1482 1485 1488 1490 1491 1493 1495 1497 1498 1500 1501 1501 1502 1502 1503 1503 1503 1503 1504
1443 1450 1459 1461 1455 1466 1454 1438 1436 1439 1440 1439 1442 1447 1450 1454 1458 1461 1463 1466 1469 1472 1475 1479 1482 1483 1485 1487 1489 1491 1493 1494 1495 1497 1498 1498 1499 1499 1500 1501 1501 1501 1501 1502
1437 1447 1458 1466 1466 1459 1447 1439 1438 1441 1446 1440 1442 1447 1452 1456 1460 1466 1467 1468 1469 1472 1475 1479 1482 1483 1485 1487 1489 1490 1492 1493 1494 1495 1495 1496 1497 1497 1498 1499 1499 1499 1500 1500
1437 1443 1455 1463 1465 1466 1453 1439 1435 1439 1452 1444 1442 1445 1449 1454 1464 1468 1468 1468 1470 1473 1476 1479 1481 1483 1485 1487 1488 1490 1491 1492 1493 1493 1494 1494 1495 1496 1496 1497 1497 1497 1498 1498
1448 1451 1456 1462 1464 1458 1446 1439 1435 1452 1455 1446 1445 1445 1447 1451 1456 1463 1465 1469 1471 1474 1478 1480 1482 1483 1485 1487 1488 1489 1490 1491 1492 1492 1493 1493 1493 1494 1494 1495 1495 1496 1496 1497
1451 1455 1457 1460 1466 1462 1443 1440 1444 1447 1443 1444 1446 1448 1448 1452 1457 1462 1465 1469 1473 1476 1479 1481 1482 1484 1486 1487 1488 1489 1489 1490 1491 1491 1492 1492 1492 1492 1493 1494 1494 1495 1495 1496
1448 1450 1451 1453 1456 1448 1443 1442 1442 1442 1443 1445 1447 1450 1450 1453 1459 1464 1467 1472 1475 1477 1480 1482 1483 1485 1487 1488 1488 1488 1490 1490 1491 1491 1491 1491 1491 1492 1492 1493 1493 1494 1495 1496
1446 1444 1447 1449 1448 1445 1443 1442 1443 1444 1444 1445 1448 1451 1453 1455 1460 1465 1469 1473 1477 1479 1481 1483 1484 1486 1487 1488 1489 1489 1490 1491 1490 1490 1491 1491 1491 1492 1492 1493 1493 1494 1495 1496
1446 1445 1447 1449 1447 1445 1446 1445 1445 1446 1446 1447 1450 1452 1455 1458 1462 1466 1471 1475 1478 1481 1483 1484 1485 1487 1488 1489 1490 1491 1491 1491 1491 1491 1491 1492 1492 1493 1494 1494 1495 1495 1496 1497
1446 1446 1448 1449 1446 1446 1448 1447 1447 1447 1448 1449 1450 1455 1460 1461 1464 1469 1473 1477 1480 1483 1485 1486 1488 1489 1490 1491 1492 1492 1493 1493 1493 1492 1493 1493 1494 1495 1495 1496 1496 1497 1498 1499